Orbital Elements at Epoch 2459000.5 (2020-May-31.0) TDB
Reference: JPL 25 (heliocentric ecliptic J2000)
Element | Value | Uncertainty (1-sigma) | Units |
e | .1736858376672854 | 4.5222e-08 | |
a | 2.662892876093334 | 1.3167e-08 | au |
q | 2.200386096290817 | 1.2514e-07 | au |
i | 13.70377287805739 | 4.7386e-06 | deg |
node | 20.86861986624942 | 1.5295e-05 | deg |
peri | 329.2419097320058 | 1.9201e-05 | deg |
M | 319.5046184822222 | 1.0441e-05 | deg |
tp | 2459179.038534142589 (2020-Nov-25.53853414) | 4.6179e-05 | TDB |
period | 1587.190190148357 4.35 | 1.1772e-05 3.223e-08 | d yr |
n | .2268159179879698 | 1.6822e-09 | deg/d |
Q | 3.125399655895852 | 1.5453e-08 | au |
|
| | Orbit Determination Parameters
Additional Information
|